• In Russia
  • List of Countries
  • For 7 days
  • Water Temperature
  • Satellite Maps
  • Weather Map
  • Weather Widgets
  • user-avatar
    Login

    Hourly Weather Dikhil

    Today, 24 February, Saturday

    Time Temperature Precipitation Wind Pressure Humidity
    00:00 +26°C° 0 mm 4 mps 715 mmHg 58%
    01:00 +26°C° 0 mm 4 mps 715 mmHg 61%
    02:00 +25°C° 0 mm 3 mps 715 mmHg 64%
    03:00 +25°C° 0 mm 3 mps 714 mmHg 67%
    04:00 +24°C° 0 mm 3 mps 715 mmHg 70%
    05:00 +24°C° 0 mm 3 mps 715 mmHg 72%
    06:00 +24°C° 0 mm 3 mps 715 mmHg 74%
    07:00 +25°C° 0 mm 3 mps 715 mmHg 67%
    08:00 +26°C° 0 mm 3 mps 716 mmHg 61%
    09:00 +27°C° 0 mm 4 mps 716 mmHg 54%
    10:00 +29°C° 0 mm 4 mps 716 mmHg 48%
    11:00 +32°C° 0 mm 4 mps 716 mmHg 41%
    12:00 +34°C° 0 mm 4 mps 716 mmHg 35%
    13:00 +35°C° 0 mm 4 mps 715 mmHg 34%
    14:00 +36°C° 0 mm 4 mps 715 mmHg 34%
    15:00 +36°C° 0 mm 5 mps 714 mmHg 33%
    16:00 +35°C° 0 mm 5 mps 714 mmHg 37%
    17:00 +34°C° 0 mm 5 mps 714 mmHg 42%
    18:00 +33°C° 0 mm 6 mps 714 mmHg 47%
    19:00 +32°C° 0 mm 6 mps 714 mmHg 51%
    20:00 +30°C° 0 mm 5 mps 714 mmHg 56%
    21:00 +29°C° 0 mm 5 mps 714 mmHg 61%
    22:00 +28°C° 0 mm 4 mps 714 mmHg 63%
    23:00 +27°C° 0 mm 4 mps 714 mmHg 66%

    Tomorrow, 25 February, Sunday

    Time Temperature Precipitation Wind Pressure Humidity
    00:00 +27°C° 0 mm 4 mps 714 mmHg 68%
    01:00 +26°C° 0 mm 4 mps 714 mmHg 71%
    02:00 +26°C° 0 mm 4 mps 714 mmHg 73%
    03:00 +26°C° 0 mm 4 mps 714 mmHg 75%
    04:00 +25°C° 0 mm 4 mps 714 mmHg 76%
    05:00 +25°C° 0 mm 4 mps 714 mmHg 78%
    06:00 +25°C° 0 mm 4 mps 714 mmHg 79%
    07:00 +26°C° 0 mm 4 mps 715 mmHg 74%
    08:00 +27°C° 0 mm 5 mps 715 mmHg 69%
    09:00 +28°C° 0 mm 5 mps 716 mmHg 64%
    10:00 +29°C° 0 mm 5 mps 716 mmHg 59%
    11:00 +32°C° 0 mm 5 mps 716 mmHg 53%
    12:00 +33°C° 0 mm 5 mps 716 mmHg 48%
    13:00 +34°C° 0 mm 5 mps 715 mmHg 46%
    14:00 +34°C° 0 mm 5 mps 715 mmHg 45%
    15:00 +35°C° 0 mm 5 mps 714 mmHg 44%
    16:00 +34°C° 0 mm 6 mps 714 mmHg 48%
    17:00 +33°C° 0 mm 6 mps 714 mmHg 51%
    18:00 +32°C° 0 mm 6 mps 714 mmHg 55%
    19:00 +30°C° 0 mm 5 mps 715 mmHg 59%
    20:00 +29°C° 0 mm 5 mps 715 mmHg 62%
    21:00 +28°C° 0 mm 5 mps 716 mmHg 66%
    22:00 +27°C° 0 mm 4 mps 715 mmHg 68%
    23:00 +27°C° 0 mm 4 mps 715 mmHg 70%

    Day after tomorrow, 26 February, Monday

    Time Temperature Precipitation Wind Pressure Humidity
    00:00 +27°C° 0 mm 4 mps 715 mmHg 72%
    01:00 +26°C° 0 mm 4 mps 715 mmHg 74%
    02:00 +26°C° 0 mm 3 mps 715 mmHg 75%
    03:00 +25°C° 0 mm 3 mps 714 mmHg 77%
    04:00 +25°C° 0 mm 3 mps 715 mmHg 79%
    05:00 +25°C° 0 mm 3 mps 715 mmHg 80%
    06:00 +25°C° 0 mm 3 mps 715 mmHg 81%
    07:00 +26°C° 0 mm 3 mps 716 mmHg 77%
    08:00 +26°C° 0 mm 4 mps 716 mmHg 72%
    09:00 +27°C° 0 mm 4 mps 717 mmHg 67%
    10:00 +29°C° 0 mm 4 mps 717 mmHg 62%
    11:00 +30°C° 0 mm 5 mps 717 mmHg 56%
    12:00 +32°C° 0 mm 5 mps 716 mmHg 51%
    13:00 +33°C° 0 mm 5 mps 715 mmHg 49%
    14:00 +33°C° 0 mm 5 mps 715 mmHg 48%
    15:00 +34°C° 0 mm 6 mps 714 mmHg 47%
    16:00 +33°C° 0 mm 6 mps 714 mmHg 50%
    17:00 +32°C° 0 mm 6 mps 714 mmHg 54%
    18:00 +30°C° 0 mm 7 mps 714 mmHg 58%
    19:00 +29°C° 0 mm 6 mps 714 mmHg 62%
    20:00 +28°C° 0 mm 6 mps 715 mmHg 67%
    21:00 +27°C° 0 mm 5 mps 716 mmHg 71%
    22:00 +27°C° 0 mm 5 mps 716 mmHg 73%
    23:00 +27°C° 0 mm 5 mps 716 mmHg 74%

    27 February, Tuesday

    Time Temperature Precipitation Wind Pressure Humidity
    00:00 +26°C° 0 mm 5 mps 716 mmHg 76%
    01:00 +26°C° 0 mm 4 mps 715 mmHg 77%
    02:00 +26°C° 0 mm 4 mps 714 mmHg 78%
    03:00 +26°C° 0 mm 4 mps 714 mmHg 79%
    04:00 +25°C° 0 mm 4 mps 714 mmHg 80%
    05:00 +25°C° 0 mm 4 mps 714 mmHg 80%
    06:00 +25°C° 0 mm 4 mps 715 mmHg 81%
    07:00 +26°C° 0 mm 4 mps 715 mmHg 77%
    08:00 +27°C° 0 mm 5 mps 716 mmHg 72%
    09:00 +28°C° 0 mm 5 mps 717 mmHg 68%
    10:00 +29°C° 0 mm 6 mps 716 mmHg 63%
    11:00 +30°C° 0 mm 6 mps 716 mmHg 58%
    12:00 +32°C° 0 mm 6 mps 716 mmHg 53%
    13:00 +33°C° 0 mm 6 mps 715 mmHg 51%
    14:00 +33°C° 0 mm 7 mps 714 mmHg 49%
    15:00 +34°C° 0 mm 7 mps 714 mmHg 48%
    16:00 +33°C° 0 mm 7 mps 714 mmHg 52%
    17:00 +32°C° 0 mm 7 mps 714 mmHg 56%
    18:00 +29°C° 0 mm 8 mps 714 mmHg 60%
    19:00 +29°C° 0 mm 7 mps 714 mmHg 64%
    20:00 +28°C° 0 mm 6 mps 715 mmHg 67%
    21:00 +27°C° 0 mm 6 mps 715 mmHg 71%
    22:00 +27°C° 0 mm 5 mps 715 mmHg 73%
    23:00 +26°C° 0 mm 5 mps 715 mmHg 75%

    28 February, Wednesday

    Time Temperature Precipitation Wind Pressure Humidity
    00:00 +26°C° 0 mm 5 mps 715 mmHg 76%
    01:00 +26°C° 0 mm 4 mps 715 mmHg 77%
    02:00 +26°C° 0 mm 4 mps 714 mmHg 79%
    03:00 +25°C° 0 mm 4 mps 714 mmHg 80%
    04:00 +25°C° 0 mm 4 mps 714 mmHg 80%
    05:00 +25°C° 0 mm 4 mps 714 mmHg 81%
    06:00 +25°C° 0 mm 4 mps 715 mmHg 81%
    07:00 +26°C° 0 mm 4 mps 715 mmHg 78%
    08:00 +27°C° 0 mm 4 mps 716 mmHg 74%
    09:00 +27°C° 0 mm 4 mps 717 mmHg 71%
    10:00 +28°C° 0 mm 4 mps 716 mmHg 66%
    11:00 +30°C° 0 mm 4 mps 716 mmHg 61%
    12:00 +32°C° 0 mm 4 mps 715 mmHg 57%
    13:00 +32°C° 0 mm 4 mps 715 mmHg 54%
    14:00 +33°C° 0 mm 4 mps 714 mmHg 51%
    15:00 +34°C° 0 mm 4 mps 713 mmHg 48%
    16:00 +33°C° 0 mm 5 mps 713 mmHg 50%
    17:00 +33°C° 0 mm 5 mps 713 mmHg 52%
    18:00 +32°C° 0 mm 6 mps 713 mmHg 55%
    19:00 +30°C° 0 mm 5 mps 713 mmHg 59%
    20:00 +29°C° 0 mm 5 mps 714 mmHg 63%
    21:00 +28°C° 0 mm 4 mps 714 mmHg 68%
    22:00 +28°C° 0 mm 4 mps 714 mmHg 70%
    23:00 +27°C° 0 mm 4 mps 714 mmHg 72%

    1 March, Thursday

    Time Temperature Precipitation Wind Pressure Humidity
    00:00 +27°C° 0 mm 3 mps 714 mmHg 74%
    01:00 +26°C° 0 mm 3 mps 713 mmHg 76%
    02:00 +26°C° 0 mm 3 mps 713 mmHg 77%
    03:00 +26°C° 0 mm 3 mps 713 mmHg 79%
    04:00 +26°C° 0 mm 3 mps 713 mmHg 80%
    05:00 +25°C° 0 mm 3 mps 713 mmHg 81%
    06:00 +25°C° 0 mm 3 mps 714 mmHg 82%
    07:00 +26°C° 0 mm 3 mps 714 mmHg 78%
    08:00 +27°C° 0 mm 4 mps 715 mmHg 74%
    09:00 +28°C° 0 mm 4 mps 715 mmHg 70%
    10:00 +29°C° 0 mm 4 mps 715 mmHg 65%
    11:00 +30°C° 0 mm 4 mps 715 mmHg 60%
    12:00 +32°C° 0 mm 4 mps 714 mmHg 55%
    13:00 +33°C° 0 mm 4 mps 714 mmHg 52%
    14:00 +34°C° 0 mm 4 mps 713 mmHg 50%
    15:00 +34°C° 0 mm 4 mps 713 mmHg 47%
    16:00 +34°C° 0 mm 5 mps 713 mmHg 50%
    17:00 +33°C° 0 mm 5 mps 713 mmHg 52%
    18:00 +33°C° 0 mm 5 mps 713 mmHg 55%
    19:00 +32°C° 0 mm 5 mps 713 mmHg 59%
    20:00 +30°C° 0 mm 5 mps 713 mmHg 63%
    21:00 +29°C° 0 mm 4 mps 714 mmHg 67%
    22:00 +28°C° 0 mm 4 mps 713 mmHg 70%
    23:00 +28°C° 0 mm 4 mps 713 mmHg 72%
    Show more